Temperature
22 21 20 19 18 18 18 18 17 17 17 17 18 18 17 17 17 17 17 17 17 17 17 17 17 17 17 17 17 17 17 17 17 17 17 17 17 17 17 17 17 17 17
22 20 19 19 18 18 18 18 17 17 17 17 17 17 17 17 17 17 17 17 17 17 17 17 17 17 17 17 16 16 17 17 17 17 17 17 17 17 17 17 17 17 17
22 21 19 19 18 18 18 17 17 17 17 17 17 17 17 17 17 17 17 17 17 17 17 17 17 17 17 16 16 16 17 17 17 17 17 17 18 17 18 17 17 17 17
23 21 20 19 18 18 18 17 17 17 17 17 17 17 17 17 17 17 17 17 17 17 17 17 16 17 16 16 16 16 16 17 17 17 17 17 17 17 17 17 17 17 17
23 21 20 19 18 18 18 17 17 17 17 17 17 17 17 17 17 17 17 17 17 17 16 16 16 16 16 16 16 16 16 16 17 17 17 17 18 18 18 18 17 17 17
23 21 20 19 18 18 18 17 17 17 17 17 17 17 17 17 17 17 17 17 17 17 16 16 16 16 16 16 16 16 16 16 16 17 17 17 18 18 18 18 18 18 18
23 21 20 19 18 18 18 17 17 17 17 17 17 17 17 17 17 17 17 17 17 17 16 16 16 16 16 16 16 16 16 16 16 17 17 17 17 17 18 18 18 18 18
23 22 20 19 18 18 18 17 17 17 17 17 17 17 17 17 17 17 17 17 17 17 17 16 16 16 16 16 16 16 16 16 16 16 16 17 17 17 17 17 17 18 18
24 22 21 19 19 18 18 17 17 17 17 17 17 17 17 17 17 17 17 17 17 17 17 17 16 16 16 16 16 16 16 16 16 16 16 16 17 17 17 17 17 17 17
24 22 21 20 19 18 18 17 17 17 17 17 17 17 17 17 17 17 17 17 17 17 17 17 16 16 16 16 16 16 16 16 16 16 16 16 16 16 16 16 16 17 17
25 23 21 20 19 18 18 17 17 17 17 17 17 17 17 17 17 17 17 17 17 17 17 16 16 16 16 16 16 16 16 16 16 16 16 16 16 16 16 16 16 16 16
25 23 22 20 19 19 18 18 17 17 17 17 17 17 17 17 17 17 17 17 17 17 17 16 16 16 16 16 16 16 16 16 15 15 15 15 16 16 16 16 16 16 16
25 23 22 21 20 19 18 18 17 17 17 17 17 17 17 17 17 17 17 17 17 17 16 16 16 16 16 16 16 16 16 16 15 15 15 15 15 15 15 15 15 15 15
24 23 22 21 20 19 19 18 18 17 17 17 17 17 17 16 16 16 17 17 17 17 16 16 16 16 16 16 16 15 15 15 15 15 15 15 15 15 15 15 15 15 15
24 23 22 21 20 20 19 19 18 18 17 17 17 17 17 16 16 16 16 16 16 16 16 16 16 16 15 15 15 15 15 15 15 15 15 14 14 14 14 14 14 14 14
24 23 22 21 20 20 19 19 18 18 18 17 17 17 16 16 16 16 16 16 16 16 16 16 15 15 15 15 15 15 15 15 14 14 14 14 14 14 14 14 13 13 13
23 22 21 21 20 19 19 19 18 18 18 17 17 16 16 16 16 16 16 16 16 16 15 15 15 15 15 15 15 15 15 14 14 14 13 13 13 13 13 13 13 12 12
22 22 21 20 20 19 19 18 18 18 17 17 17 16 16 16 16 16 16 16 15 15 15 15 15 14 14 14 14 14 14 14 13 13 13 13 13 12 12 12 12 12 11
22 21 20 20 19 19 19 18 18 17 17 17 16 16 16 16 15 15 15 15 15 14 14 14 14 14 14 14 14 13 13 13 12 12 12 12 12 11 11 11 11 11 11
20 20 19 19 19 18 18 18 17 17 16 16 16 16 16 15 15 15 14 14 14 13 13 13 13 13 13 13 13 12 12 12 11 11 11 11 10 10 10 10 10 10 10
18 18 18 18 17 17 17 17 16 16 16 16 15 15 15 14 14 14 13 13 13 13 13 12 12 12 12 12 11 11 11 11 10 10 10 9 9 9 9 9 9 8 8
17 17 17 16 16 16 16 16 15 15 15 15 14 14 14 13 13 13 13 13 13 13 12 12 11 11 10 10 10 10 10 10 9 9 9 8 8 8 8 8 8 7 7
15 15 15 15 15 15 15 15 14 14 14 13 13 13 13 13 12 12 12 12 12 12 11 11 10 9 9 9 9 9 8 8 8 8 8 8 7 7 7 7 7 7 6
14 14 14 14 13 13 13 13 13 13 13 12 12 12 12 11 11 11 11 11 11 11 10 10 9 8 8 8 8 8 8 8 7 7 7 7 7 7 6 6 6 6 6
13 13 13 12 12 12 12 12 12 12 12 12 11 11 11 11 11 11 10 10 10 10 10 9 9 8 8 8 7 7 7 7 7 7 7 6 6 6 6 6 5 5 5
12 11 11 11 11 11 11 11 11 11 11 11 11 10 10 10 10 10 9 9 9 9 8 8 8 7 7 7 7 6 6 6 6 6 6 6 5 5 5 5 4 4 4
Wind_Speed
12 11 11 11 12 11 11 11 11 10 9 7 6 5 5 5 5 5 7 7 7 6 2 3 4 2 2 4 4 3 3 2 1 1 2 2 3 3 3 2 2 4 6
13 13 12 12 12 12 11 11 12 12 10 8 6 5 6 5 5 5 6 7 7 7 5 3 4 3 3 3 2 2 1 3 3 1 1 2 2 2 5 4 4 3 4
14 14 13 12 12 12 12 11 12 12 11 10 7 6 5 5 5 6 5 5 7 6 4 4 2 3 4 4 3 3 2 1 2 2 0 0 1 2 2 4 4 3 3
14 14 13 13 12 12 11 10 11 10 10 10 9 10 8 7 7 6 5 6 6 6 6 5 3 2 2 5 5 4 2 1 2 2 2 1 1 1 1 2 4 5 4
14 14 13 12 12 12 11 11 11 10 10 10 10 9 8 6 6 7 8 6 5 5 6 6 4 3 2 4 2 4 1 2 2 2 2 2 1 2 2 2 3 3 4
14 13 13 12 11 11 10 11 11 11 11 10 10 9 9 8 8 8 8 6 5 5 6 6 4 4 3 4 3 3 3 1 2 2 2 0 1 2 2 1 3 4 4
13 13 13 13 12 12 12 12 12 12 11 11 10 9 9 9 9 9 8 7 6 5 6 6 5 4 3 4 3 3 2 3 1 1 3 2 2 2 2 2 2 1 1
13 13 13 13 12 12 12 12 12 11 12 11 9 8 9 7 7 8 7 7 5 6 8 7 6 5 5 5 4 3 4 2 2 3 2 3 3 3 2 2 2 3 2
14 14 13 13 12 12 11 12 11 11 11 10 9 8 9 8 7 8 7 6 5 7 9 8 7 5 4 3 4 3 3 4 3 4 3 3 3 3 2 2 2 2 3
14 15 14 13 12 12 11 11 11 10 10 9 9 9 8 7 7 7 7 6 6 7 8 8 7 6 5 4 3 3 3 3 3 2 1 2 3 2 2 2 2 2 3
15 15 14 13 13 13 12 11 11 9 9 9 8 8 8 8 7 6 6 6 6 7 8 7 6 6 6 5 4 4 4 4 4 4 3 3 3 3 4 3 3 3 3
14 16 15 14 14 14 13 12 11 11 10 9 9 8 8 8 8 7 7 7 7 7 7 6 6 5 6 5 5 5 4 4 4 4 4 4 4 4 4 4 5 4 3
14 15 15 14 13 13 12 12 12 12 11 10 10 9 9 8 8 7 7 7 6 6 6 6 5 5 4 4 4 4 4 3 3 3 3 3 3 3 3 4 4 4 5
13 14 13 12 12 12 11 12 12 11 11 11 10 10 10 9 8 7 7 7 6 6 5 5 4 3 2 2 3 3 3 2 2 1 1 1 1 2 3 3 3 4 5
14 14 13 12 11 11 11 11 11 10 10 11 10 10 9 8 8 7 7 6 6 6 4 4 3 2 1 1 1 1 1 1 0 1 1 2 4 5 4 3 3 4 4
13 13 13 13 12 12 11 10 10 10 9 10 9 9 9 9 8 7 7 6 6 5 5 4 3 3 3 5 7 4 2 2 2 2 2 3 5 5 5 4 4 3 4
12 13 12 12 11 10 10 10 10 10 10 9 9 9 8 9 8 8 7 7 6 6 5 5 6 7 7 9 9 8 4 4 5 5 5 5 8 9 6 4 3 3 2
9 11 12 12 11 11 11 10 10 10 10 10 9 9 9 9 8 8 7 7 6 7 7 7 8 8 9 11 10 8 5 6 6 7 7 7 8 9 8 6 5 4 4
8 9 9 11 11 11 11 11 10 10 10 9 9 9 10 9 9 8 8 8 8 9 9 9 9 10 10 12 12 9 5 6 6 7 8 7 7 9 10 7 6 6 5
10 10 10 10 10 10 11 12 11 11 10 10 10 9 9 10 10 9 9 9 9 10 10 11 11 11 10 13 14 12 6 6 5 6 7 10 8 8 9 6 6 6 7
12 11 11 11 10 11 12 12 11 11 11 11 11 11 11 11 11 10 9 9 10 11 11 11 10 10 10 12 14 13 7 6 5 4 4 5 6 6 6 5 4 5 7
13 13 12 13 11 12 13 14 13 12 13 13 13 12 11 11 12 11 10 10 10 10 9 9 9 8 8 9 10 11 10 8 6 5 5 3 5 6 7 5 6 9 9
13 13 15 15 13 12 14 16 13 12 14 14 13 13 13 12 10 10 10 8 7 7 7 7 8 8 7 7 8 7 7 8 5 5 5 5 6 6 6 4 7 7 5
14 14 16 16 14 14 14 14 13 13 14 14 13 12 12 12 11 9 9 9 7 7 7 7 7 7 7 7 6 6 6 7 6 6 6 7 7 5 6 6 3 3 3
13 14 15 16 15 14 14 14 13 13 14 13 12 12 12 13 12 12 11 11 10 9 8 8 7 6 6 5 7 6 6 6 7 8 5 2 3 3 4 5 5 5 6
14 15 16 16 15 15 14 13 12 11 11 11 10 10 9 10 10 11 12 16 13 16 17 14 11 8 6 3 6 8 8 9 10 7 5 5 6 7 7 7 7 6 7
Wind_Direction
150 150 153 152 150 153 154 152 153 157 156 161 169 167 161 159 148 146 152 161 162 162 186 137 158 201 135 133 144 144 164 205 204 179 157 175 191 169 161 195 180 181 183
153 155 158 160 158 161 163 160 164 164 169 175 174 172 161 168 157 146 152 162 158 166 171 129 173 148 131 128 137 126 193 222 173 194 190 186 197 221 188 167 188 176 177
160 159 163 166 164 166 171 172 169 168 175 174 166 164 155 162 148 150 163 159 161 167 134 145 155 148 169 153 175 183 209 249 181 188 132 212 169 193 171 187 164 158 184
157 158 163 168 170 170 172 169 169 171 173 169 169 168 170 170 163 160 154 158 166 161 152 157 145 167 167 147 190 183 202 247 254 193 168 160 79 65 147 219 171 183 187
157 159 166 168 168 169 171 171 170 174 177 178 177 175 173 168 157 148 149 164 167 162 156 152 151 175 186 150 148 125 185 273 269 278 203 185 187 243 219 189 179 200 191
152 156 161 163 166 167 168 170 170 175 179 181 182 182 175 167 157 157 161 171 164 170 162 156 161 177 171 139 147 145 189 268 341 341 340 127 231 257 267 214 203 202 197
152 156 158 163 166 168 170 170 172 176 179 182 183 182 175 169 164 166 172 174 168 169 168 162 163 174 145 150 164 166 221 198 219 310 317 330 320 334 338 330 307 299 190
154 157 160 161 166 168 168 169 171 174 177 180 180 175 173 174 175 177 171 182 176 164 156 152 165 172 170 177 168 184 199 191 204 246 282 320 319 328 322 316 334 318 288
155 156 157 160 163 166 166 163 163 168 172 174 172 172 176 177 172 168 174 177 167 153 154 160 168 174 179 175 160 217 202 163 198 230 221 251 275 266 290 310 311 299 302
155 153 154 159 159 161 159 157 157 162 167 167 172 175 176 170 164 170 178 172 163 146 154 163 167 171 174 178 193 212 191 184 214 246 258 241 288 286 262 266 278 275 277
155 154 155 156 155 157 161 162 159 160 167 172 175 171 171 168 165 175 170 165 153 152 159 164 169 177 179 183 195 227 190 201 218 236 229 227 268 307 312 293 272 265 264
151 152 153 154 158 162 165 166 164 167 172 172 171 169 166 166 169 172 163 159 158 161 162 169 176 190 189 184 193 220 213 208 216 230 234 234 240 237 277 299 299 292 285
147 148 149 154 160 163 164 165 168 171 174 173 170 167 167 169 173 167 160 159 162 168 169 172 186 198 194 185 198 216 224 224 228 231 235 241 256 258 264 272 290 300 293
148 148 148 153 157 159 161 165 169 170 169 169 168 165 168 168 167 162 160 162 165 170 173 172 171 177 182 190 207 214 224 229 240 247 259 272 277 287 289 284 291 297 302
156 152 150 151 154 155 158 162 164 163 162 164 165 163 164 161 162 161 159 161 165 170 152 140 133 127 106 30 15 227 222 188 287 341 354 44 54 47 23 343 343 330 317
159 157 153 153 154 155 156 156 155 153 148 152 155 158 161 164 164 158 152 148 145 137 129 125 114 89 66 41 47 44 43 60 62 43 46 66 52 44 32 12 357 345 320
159 157 157 154 153 152 150 150 146 141 140 145 148 149 154 155 152 151 143 142 139 126 110 108 98 84 56 50 46 41 52 57 57 48 41 41 47 34 16 356 354 17 11
155 153 157 154 152 151 147 142 142 142 146 148 150 146 144 142 138 134 132 130 119 113 106 98 94 84 58 47 44 37 61 70 66 61 63 66 52 29 14 359 6 1 9
131 129 138 142 140 140 140 140 137 133 135 139 137 139 139 134 130 127 120 112 107 101 95 93 88 81 59 45 40 32 71 76 69 68 61 65 63 35 18 11 4 356 351
106 109 113 116 118 121 125 126 126 126 128 126 123 121 122 121 119 115 111 107 105 101 96 87 83 81 69 49 43 37 48 58 61 82 76 62 56 36 23 14 360 351 345
96 100 102 105 106 110 112 114 116 118 120 118 115 112 111 111 111 107 106 105 101 98 96 94 88 83 78 60 51 46 43 32 35 52 70 62 36 20 7 353 334 324 319
92 95 96 97 100 106 109 105 103 105 107 106 104 104 103 103 103 102 100 101 105 108 109 109 101 89 78 65 58 50 42 29 31 33 39 30 349 334 324 317 306 313 314
94 94 97 94 91 94 101 104 103 103 102 99 97 94 91 90 94 98 101 103 106 107 108 106 100 91 78 60 46 42 35 22 21 15 360 323 297 305 306 285 297 314 321
96 97 96 93 90 90 92 97 99 98 98 97 94 92 90 85 76 74 75 71 64 73 81 80 83 85 69 44 26 24 26 19 18 359 323 300 286 287 310 328 327 317 342
98 97 96 95 93 89 88 89 92 96 97 97 95 93 90 87 79 71 64 72 60 67 71 70 71 72 65 37 28 27 15 3 358 336 316 330 12 3 6 3 4 2 4
99 97 96 95 94 91 88 86 87 92 98 101 100 100 101 101 101 96 81 61 71 72 74 77 84 81 84 61 24 11 350 339 341 338 343 13 18 12 7 2 359 3 7
Height
1475 1479 1482 1485 1487 1489 1492 1496 1500 1504 1508 1513 1517 1521 1524 1528 1531 1534 1537 1540 1542 1544 1546 1548 1550 1552 1553 1555 1556 1558 1559 1561 1562 1564 1565 1566 1567 1568 1568 1569 1570 1571 1572
1473 1477 1480 1483 1486 1488 1492 1495 1499 1503 1507 1511 1516 1520 1524 1527 1530 1533 1536 1538 1541 1543 1545 1547 1549 1550 1552 1554 1556 1557 1559 1561 1562 1563 1565 1566 1567 1566 1567 1568 1569 1570 1571
1469 1474 1478 1482 1485 1488 1491 1494 1497 1502 1506 1510 1515 1519 1523 1526 1529 1532 1534 1537 1540 1542 1544 1546 1548 1550 1551 1553 1554 1556 1558 1560 1561 1563 1564 1564 1565 1566 1567 1567 1568 1569 1569
1467 1472 1476 1480 1483 1486 1489 1493 1496 1500 1504 1508 1512 1516 1520 1523 1526 1530 1533 1536 1538 1540 1542 1544 1546 1548 1550 1552 1554 1555 1557 1558 1560 1562 1563 1564 1564 1565 1566 1567 1567 1568 1568
1465 1470 1475 1478 1482 1485 1488 1491 1495 1498 1502 1506 1510 1515 1518 1522 1525 1529 1532 1534 1536 1539 1541 1543 1545 1547 1549 1551 1552 1554 1556 1557 1559 1561 1562 1563 1564 1564 1565 1566 1567 1567 1567
1463 1469 1473 1477 1480 1483 1486 1489 1493 1496 1500 1504 1509 1513 1516 1520 1523 1527 1530 1532 1535 1537 1540 1542 1544 1546 1548 1549 1551 1552 1554 1556 1557 1559 1560 1562 1563 1563 1564 1565 1565 1565 1565
1462 1467 1472 1475 1478 1481 1484 1487 1490 1494 1498 1502 1506 1510 1514 1518 1521 1524 1528 1531 1533 1536 1538 1541 1543 1545 1547 1548 1550 1551 1553 1555 1556 1557 1559 1560 1561 1562 1563 1563 1564 1564 1564
1460 1465 1470 1473 1476 1480 1483 1485 1489 1492 1496 1500 1504 1508 1512 1516 1520 1523 1526 1529 1532 1535 1537 1539 1542 1544 1546 1548 1549 1551 1552 1553 1555 1556 1557 1558 1560 1561 1561 1562 1563 1562 1563
1458 1464 1468 1472 1475 1478 1481 1484 1487 1490 1494 1498 1502 1506 1510 1514 1518 1521 1525 1528 1531 1534 1536 1538 1540 1542 1545 1547 1548 1550 1551 1552 1553 1555 1556 1557 1558 1559 1560 1560 1561 1562 1561
1456 1462 1467 1471 1475 1478 1481 1484 1487 1490 1494 1497 1501 1505 1508 1512 1516 1520 1523 1527 1530 1533 1534 1537 1539 1541 1543 1545 1547 1548 1550 1551 1552 1553 1554 1555 1556 1557 1558 1558 1559 1559 1559
1454 1460 1466 1470 1474 1477 1480 1484 1486 1490 1493 1496 1500 1504 1508 1511 1515 1518 1522 1525 1528 1531 1533 1536 1538 1540 1542 1544 1545 1547 1549 1549 1550 1551 1552 1553 1554 1554 1555 1555 1556 1556 1557
1452 1458 1464 1469 1473 1477 1480 1483 1486 1489 1492 1496 1499 1503 1506 1510 1514 1517 1520 1524 1527 1529 1532 1535 1537 1539 1541 1543 1544 1545 1547 1548 1549 1550 1550 1551 1551 1551 1552 1552 1553 1553 1553
1451 1457 1462 1467 1472 1476 1479 1483 1486 1489 1492 1495 1499 1502 1505 1509 1512 1515 1519 1522 1525 1528 1531 1533 1535 1538 1540 1541 1543 1544 1545 1546 1547 1548 1548 1548 1549 1549 1549 1549 1549 1549 1550
1451 1456 1461 1466 1471 1474 1478 1481 1485 1488 1492 1495 1498 1501 1504 1507 1511 1514 1517 1521 1524 1526 1529 1532 1534 1536 1538 1539 1541 1542 1543 1544 1545 1545 1545 1546 1546 1546 1546 1546 1545 1545 1545
1450 1455 1460 1465 1469 1473 1477 1481 1484 1488 1491 1494 1497 1500 1503 1507 1510 1513 1516 1519 1522 1525 1528 1530 1532 1534 1536 1537 1538 1539 1540 1541 1541 1542 1542 1542 1542 1542 1542 1542 1542 1541 1541
1450 1454 1459 1463 1468 1472 1476 1479 1483 1486 1490 1493 1496 1499 1503 1506 1509 1512 1515 1518 1521 1524 1526 1528 1530 1532 1533 1534 1535 1537 1537 1538 1538 1539 1539 1539 1539 1538 1538 1538 1538 1537 1537
1448 1453 1457 1461 1466 1470 1474 1478 1482 1485 1489 1492 1495 1498 1502 1505 1507 1510 1513 1516 1519 1522 1524 1526 1528 1530 1531 1532 1533 1534 1535 1535 1535 1536 1536 1536 1535 1535 1534 1534 1533 1533 1532
1447 1452 1456 1460 1465 1470 1473 1477 1481 1484 1488 1491 1494 1497 1500 1503 1506 1509 1512 1515 1518 1520 1522 1524 1526 1528 1529 1530 1531 1532 1532 1533 1533 1533 1533 1532 1532 1531 1530 1529 1529 1528 1527
1446 1450 1454 1458 1463 1468 1472 1476 1480 1483 1487 1490 1494 1497 1499 1502 1506 1509 1511 1514 1516 1519 1521 1523 1524 1526 1527 1528 1529 1530 1530 1530 1531 1530 1530 1530 1529 1528 1527 1526 1525 1524 1523
1446 1450 1454 1458 1462 1467 1471 1475 1479 1483 1486 1489 1492 1496 1499 1502 1505 1508 1510 1513 1516 1518 1520 1522 1523 1525 1526 1527 1528 1528 1528 1528 1529 1528 1528 1527 1526 1526 1524 1523 1522 1521 1520
1447 1451 1455 1459 1463 1466 1470 1474 1478 1482 1486 1489 1493 1496 1499 1502 1505 1508 1511 1513 1515 1518 1520 1521 1523 1524 1525 1526 1526 1527 1527 1527 1527 1527 1526 1525 1524 1523 1522 1521 1520 1518 1517
1450 1453 1457 1460 1464 1468 1471 1474 1479 1483 1486 1490 1493 1496 1500 1503 1506 1508 1511 1513 1516 1518 1520 1522 1523 1523 1524 1525 1526 1526 1526 1526 1526 1525 1525 1524 1523 1522 1520 1519 1518 1517 1515
1453 1456 1459 1463 1467 1471 1473 1476 1481 1484 1488 1491 1494 1498 1501 1504 1507 1510 1512 1515 1517 1519 1521 1523 1524 1525 1525 1525 1526 1526 1526 1525 1525 1524 1524 1523 1522 1521 1519 1518 1517 1515 1514
1458 1460 1463 1466 1471 1474 1477 1480 1484 1487 1490 1493 1497 1500 1503 1506 1509 1512 1514 1516 1518 1520 1522 1524 1525 1525 1526 1526 1526 1525 1525 1525 1524 1523 1522 1522 1521 1520 1518 1517 1516 1514 1513
1462 1465 1467 1471 1475 1478 1481 1485 1488 1491 1493 1497 1500 1503 1506 1508 1511 1513 1515 1518 1520 1521 1523 1524 1526 1526 1526 1526 1526 1526 1524 1524 1523 1522 1522 1521 1520 1519 1518 1516 1515 1513 1511
1466 1469 1472 1476 1480 1483 1485 1489 1492 1495 1498 1501 1504 1507 1509 1511 1514 1515 1517 1520 1521 1523 1525 1526 1526 1526 1527 1527 1526 1526 1525 1524 1523 1522 1522 1521 1519 1518 1517 1515 1513 1511 1509